This is the latest recevied weather packets stored in our database for station/object OK2ZAW-23. If no packets are shown the sender has not sent any weather packets the latest 1 day(s).
| Time | Temp. | Humidity | Pressure | Rain* | Wind** | Luminosity | Snow |
|---|---|---|---|---|---|---|---|
| 1778024201 | 13.89° C | 64% | 1003.5 hPa | - | 0 m/s | 335 W/m² | - |
| 1778023887 | 13.89° C | 63% | 1003.5 hPa | - | 0 m/s | 335 W/m² | - |
| 1778023575 | 13.89° C | 61% | 1003.5 hPa | - | 0 m/s | 335 W/m² | - |
| 1778022946 | 13.89° C | 59% | 1003.3 hPa | - | 0 m/s | 335 W/m² | - |
| 1778022634 | 14.44° C | 59% | 1003.2 hPa | - | 0 m/s | 336 W/m² | - |
| 1778022319 | 14.44° C | 58% | 1003.2 hPa | - | 0 m/s | 335 W/m² | - |
| 1778022006 | 14.44° C | 58% | 1003.1 hPa | - | 0 m/s | 335 W/m² | - |
| 1778021379 | 13.89° C | 57% | 1002.9 hPa | - | 0 m/s | 335 W/m² | - |
| 1778020751 | 13.89° C | 57% | 1002.9 hPa | - | 0 m/s | 335 W/m² | - |
| 1778020125 | 14.44° C | 58% | 1003 hPa | - | 0 m/s | 335 W/m² | - |
| 1778019810 | 13.89° C | 58% | 1003 hPa | - | 0 m/s | 335 W/m² | - |
| 1778018870 | 13.89° C | 58% | 1002.7 hPa | - | 0 m/s | 335 W/m² | - |
| 1778018243 | 13.89° C | 60% | 1003.1 hPa | - | 0 m/s | 335 W/m² | - |
| 1778017929 | 13.89° C | 57% | 1002.5 hPa | - | 0 m/s | 335 W/m² | - |
| 1778016988 | 13.89° C | 58% | 1002.2 hPa | - | 0 m/s | 335 W/m² | - |
| 1778016361 | 13.89° C | 57% | 1002.1 hPa | - | 0 m/s | 335 W/m² | - |
| 1778015734 | 14.44° C | 56% | 1002.2 hPa | - | 0 m/s | 335 W/m² | - |
| 1778015107 | 14.44° C | 55% | 1002.1 hPa | - | 0 m/s | 335 W/m² | - |
| 1778014793 | 14.44° C | 55% | 1002 hPa | - | 0 m/s | 335 W/m² | - |
| 1778013225 | 15° C | 52% | 1002.4 hPa | - | 0 m/s | 336 W/m² | - |
| 1778012598 | 15.56° C | 52% | 1002.3 hPa | - | 0 m/s | 335 W/m² | - |
| 1778012283 | 15.56° C | 50% | 1002.3 hPa | - | 0 m/s | 335 W/m² | - |
| 1778011970 | 15.56° C | 50% | 1002.3 hPa | - | 0 m/s | 336 W/m² | - |
| 1778011656 | 16.11° C | 49% | 1002.3 hPa | - | 0 m/s | 335 W/m² | - |
| 1778011342 | 16.11° C | 48% | 1002.3 hPa | - | 0 m/s | 335 W/m² | - |
* Rain since midnight (hover to see other rain measurements)
** Current wind speed in m/s (hover to see current wind gust speed)